| time (UTC) | temp F | wind direction | speed knots | gust knots | rain 1hr in | rain 24hr in | rain mn in | humidity % | barometer mb |
| 20260906173507 | 78 | 175 | 2.6 | 8.7 | 0.00 | 0.00 | 0.00 | 56 | 1019.0 |
| 20260906173005 | 77 | 171 | 2.6 | 8.7 | 0.00 | 0.00 | 0.00 | 56 | 1018.9 |
| 20260906172506 | 77 | 182 | 2.6 | 7.8 | 0.00 | 0.00 | 0.00 | 57 | 1018.9 |
| 20260906172003 | 77 | 209 | 3.5 | 9.6 | 0.00 | 0.00 | 0.00 | 57 | 1019.1 |
| 20260906171501 | 77 | 170 | 4.3 | 9.6 | 0.00 | 0.00 | 0.00 | 56 | 1019.1 |
| 20260906171059 | 77 | 136 | 3.5 | 9.6 | 0.00 | 0.00 | 0.00 | 56 | 1019.1 |
| 20260906170559 | 76 | 194 | 2.6 | 9.6 | 0.00 | 0.00 | 0.00 | 57 | 1019.2 |
| 20260906170058 | 76 | 163 | 4.3 | 9.6 | 0.00 | 0.00 | 0.00 | 56 | 1019.3 |
| 20260906165557 | 76 | 184 | 2.6 | 8.7 | 0.00 | 0.00 | 0.00 | 57 | 1019.3 |
| 20260906165056 | 76 | 188 | 3.5 | 10.4 | 0.00 | 0.00 | 0.00 | 57 | 1019.5 |
| 20260906164557 | 76 | 190 | 4.3 | 10.4 | 0.00 | 0.00 | 0.00 | 57 | 1019.5 |
| 20260906164056 | 75 | 159 | 2.6 | 7.0 | 0.00 | 0.00 | 0.00 | 58 | 1019.4 |
| 20260906163553 | 75 | 154 | 3.5 | 8.7 | 0.00 | 0.00 | 0.00 | 58 | 1019.6 |
| 20260906163101 | 75 | 172 | 2.6 | 9.6 | 0.00 | 0.00 | 0.00 | 58 | 1019.5 |
| 20260906162552 | 75 | 187 | 3.5 | 9.6 | 0.00 | 0.00 | 0.00 | 58 | 1019.5 |
| 20260906162058 | 75 | 186 | 2.6 | 7.8 | 0.00 | 0.00 | 0.00 | 58 | 1019.4 |
| 20260906161551 | 75 | 228 | 3.5 | 7.8 | 0.00 | 0.00 | 0.00 | 58 | 1019.6 |
| 20260906161049 | 74 | 219 | 1.7 | 7.8 | 0.00 | 0.00 | 0.00 | 59 | 1019.5 |
| 20260906160547 | 74 | 225 | 4.3 | 7.8 | 0.00 | 0.00 | 0.00 | 58 | 1019.6 |
| 20260906160045 | 74 | 215 | 2.6 | 7.0 | 0.00 | 0.00 | 0.00 | 59 | 1019.6 |
| 20260906155546 | 74 | 180 | 1.7 | 7.8 | 0.00 | 0.00 | 0.00 | 59 | 1019.5 |
| 20260906155044 | 74 | 227 | 5.2 | 7.8 | 0.00 | 0.00 | 0.00 | 58 | 1019.5 |
| 20260906154543 | 73 | 228 | 1.7 | 7.8 | 0.00 | 0.00 | 0.00 | 60 | 1019.5 |
| 20260906154042 | 73 | 167 | 2.6 | 7.8 | 0.00 | 0.00 | 0.00 | 61 | 1019.6 |
| 20260906153541 | 72 | 219 | 1.7 | 7.0 | 0.00 | 0.00 | 0.00 | 62 | 1019.6 |
| 20260906153041 | 72 | 234 | 3.5 | 7.8 | 0.00 | 0.00 | 0.00 | 62 | 1019.6 |
| 20260906152540 | 71 | 126 | 2.6 | 7.8 | 0.00 | 0.00 | 0.00 | 63 | 1019.8 |
| 20260906152044 | 71 | 179 | 3.5 | 7.8 | 0.00 | 0.00 | 0.00 | 63 | 1019.8 |
| 20260906151540 | 71 | 165 | 3.5 | 7.8 | 0.00 | 0.00 | 0.00 | 63 | 1020.0 |
| 20260906151031 | 71 | 183 | 4.3 | 7.8 | 0.00 | 0.00 | 0.00 | 63 | 1020.0 |
| 20260906150531 | 71 | 198 | 3.5 | 7.8 | 0.00 | 0.00 | 0.00 | 62 | 1019.9 |
| 20260906150032 | 71 | 206 | 2.6 | 7.0 | 0.00 | 0.00 | 0.00 | 63 | 1019.9 |
| 20260906145527 | 71 | 188 | 1.7 | 6.1 | 0.00 | 0.00 | 0.00 | 63 | 1019.8 |
| 20260906145027 | 71 | 180 | 1.7 | 7.0 | 0.00 | 0.00 | 0.00 | 63 | 1019.8 |
| 20260906144527 | 71 | 189 | 2.6 | 9.6 | 0.00 | 0.00 | 0.00 | 63 | 1019.7 |
| 20260906144030 | 71 | 179 | 2.6 | 9.6 | 0.00 | 0.00 | 0.00 | 63 | 1019.6 |
| 20260906143528 | 71 | 207 | 3.5 | 7.8 | 0.00 | 0.00 | 0.00 | 63 | 1019.7 |
| 20260906143026 | 71 | 206 | 2.6 | 7.8 | 0.00 | 0.00 | 0.00 | 64 | 1019.6 |
| 20260906142526 | 70 | 213 | 3.5 | 8.7 | 0.00 | 0.00 | 0.00 | 64 | 1019.6 |
| 20260906142029 | 70 | 244 | 2.6 | 9.6 | 0.00 | 0.00 | 0.00 | 64 | 1019.6 |
| 20260906141029 | 70 | 195 | 2.6 | 6.1 | 0.00 | 0.00 | 0.00 | 64 | 1019.7 |
| 20260906140527 | 70 | 247 | 0.9 | 9.6 | 0.00 | 0.00 | 0.00 | 65 | 1019.7 |
| 20260906140024 | 70 | 232 | 3.5 | 9.6 | 0.00 | 0.00 | 0.00 | 64 | 1019.6 |
| 20260906135524 | 70 | 163 | 3.5 | 9.6 | 0.00 | 0.00 | 0.00 | 64 | 1019.6 |
| 20260906135024 | 70 | 217 | 4.3 | 7.8 | 0.00 | 0.00 | 0.00 | 64 | 1019.6 |
| 20260906134522 | 70 | 202 | 3.5 | 9.6 | 0.00 | 0.00 | 0.00 | 64 | 1019.5 |
| 20260906134022 | 71 | 185 | 5.2 | 9.6 | 0.00 | 0.00 | 0.00 | 64 | 1019.5 |
| 20260906133523 | 71 | 198 | 2.6 | 7.8 | 0.00 | 0.00 | 0.00 | 65 | 1019.4 |
| 20260906133024 | 71 | 178 | 1.7 | 7.8 | 0.00 | 0.00 | 0.00 | 65 | 1019.3 |
| 20260906132522 | 70 | 129 | 2.6 | 7.8 | 0.00 | 0.00 | 0.00 | 65 | 1019.2 |
| 20260906132019 | 70 | 191 | 3.5 | 7.8 | 0.00 | 0.00 | 0.00 | 65 | 1019.2 |
| 20260906131025 | 70 | 193 | 1.7 | 7.8 | 0.00 | 0.00 | 0.00 | 65 | 1019.1 |
| 20260906130524 | 70 | 144 | 3.5 | 7.8 | 0.00 | 0.00 | 0.00 | 65 | 1019.1 |
| 20260906130026 | 70 | 205 | 1.7 | 6.1 | 0.00 | 0.00 | 0.00 | 65 | 1019.1 |
| 20260906125524 | 70 | 165 | 1.7 | 6.1 | 0.00 | 0.00 | 0.00 | 65 | 1019.1 |
| 20260906125023 | 70 | 180 | 0.9 | 4.3 | 0.00 | 0.00 | 0.00 | 65 | 1019.0 |
| 20260906124522 | 70 | 175 | 0.9 | 4.3 | 0.00 | 0.00 | 0.00 | 66 | 1019.0 |
| 20260906124022 | 70 | 158 | 0.9 | 3.5 | 0.00 | 0.00 | 0.00 | 66 | 1019.1 |
| 20260906123521 | 70 | 180 | 0.9 | 4.3 | 0.00 | 0.00 | 0.00 | 66 | 1019.1 |
| 20260906123027 | 69 | 185 | 0.9 | 3.5 | 0.00 | 0.00 | 0.00 | 66 | 1019.2 |
| 20260906122521 | 69 | 180 | 0.0 | 3.5 | 0.00 | 0.00 | 0.00 | 66 | 1019.1 |
| 20260906122023 | 69 | 180 | 0.0 | 3.5 | 0.00 | 0.00 | 0.00 | 66 | 1019.1 |
| 20260906121020 | 69 | 177 | 0.9 | 4.3 | 0.00 | 0.00 | 0.00 | 66 | 1019.0 |
| 20260906120523 | 69 | 181 | 0.9 | 4.3 | 0.00 | 0.00 | 0.00 | 66 | 1018.9 |
| 20260906120018 | 69 | 190 | 0.0 | 3.5 | 0.00 | 0.00 | 0.00 | 66 | 1018.9 |
| 20260906115517 | 69 | 190 | 0.9 | 4.3 | 0.00 | 0.00 | 0.00 | 66 | 1018.8 |
| 20260906115016 | 69 | 198 | 0.0 | 5.2 | 0.00 | 0.00 | 0.00 | 66 | 1018.8 |
| 20260906114533 | 69 | 186 | 1.7 | 5.2 | 0.00 | 0.00 | 0.00 | 66 | 1018.9 |
| 20260906114014 | 69 | 185 | 0.0 | 3.5 | 0.00 | 0.00 | 0.00 | 66 | 1018.8 |
| 20260906113515 | 69 | 195 | 0.0 | 5.2 | 0.00 | 0.00 | 0.00 | 66 | 1018.7 |
| 20260906113013 | 70 | 223 | 1.7 | 6.1 | 0.00 | 0.00 | 0.00 | 66 | 1018.6 |
| 20260906112512 | 69 | 190 | 0.0 | 2.6 | 0.00 | 0.00 | 0.00 | 66 | 1018.6 |
| 20260906112015 | 70 | 187 | 0.0 | 7.0 | 0.00 | 0.00 | 0.00 | 66 | 1018.5 |
| 20260906111521 | 70 | 207 | 0.0 | 3.5 | 0.00 | 0.00 | 0.00 | 66 | 1018.6 |
| 20260906111009 | 70 | 191 | 0.0 | 3.5 | 0.00 | 0.00 | 0.00 | 67 | 1018.5 |
| 20260906110510 | 70 | 159 | 0.0 | 3.5 | 0.00 | 0.00 | 0.00 | 67 | 1018.5 |
| 20260906110009 | 70 | 170 | 0.0 | 3.5 | 0.00 | 0.00 | 0.00 | 67 | 1018.4 |
| 20260906105510 | 70 | 170 | 0.9 | 3.5 | 0.00 | 0.00 | 0.00 | 67 | 1018.4 |
| 20260906105008 | 70 | 167 | 0.0 | 1.7 | 0.00 | 0.00 | 0.00 | 67 | 1018.6 |
| 20260906104511 | 70 | 167 | 0.0 | 1.7 | 0.00 | 0.00 | 0.00 | 66 | 1018.5 |
| 20260906104007 | 70 | 167 | 0.0 | 3.5 | 0.00 | 0.00 | 0.00 | 66 | 1018.5 |
| 20260906103506 | 70 | 192 | 0.0 | 3.5 | 0.00 | 0.00 | 0.00 | 66 | 1018.5 |
| 20260906103007 | 70 | 192 | 0.0 | 0.9 | 0.00 | 0.00 | 0.00 | 66 | 1018.3 |
| 20260906102505 | 70 | 192 | 0.0 | 1.7 | 0.00 | 0.00 | 0.00 | 66 | 1018.4 |
| 20260906102006 | 70 | 206 | 0.0 | 1.7 | 0.00 | 0.00 | 0.00 | 66 | 1018.4 |
| 20260906101506 | 70 | 207 | 0.0 | 3.5 | 0.00 | 0.00 | 0.00 | 66 | 1018.4 |
| 20260906101038 | 70 | 207 | 0.0 | 3.5 | 0.00 | 0.00 | 0.00 | 66 | 1018.4 |
| 20260906100537 | 70 | 200 | 0.0 | 0.0 | 0.00 | 0.00 | 0.00 | 66 | 1018.3 |
| 20260906100035 | 70 | 200 | 0.0 | 1.7 | 0.00 | 0.00 | 0.00 | 66 | 1018.3 |
| 20260906095534 | 71 | 200 | 0.0 | 1.7 | 0.00 | 0.00 | 0.00 | 66 | 1018.1 |
| 20260906095034 | 71 | 184 | 0.0 | 4.3 | 0.00 | 0.00 | 0.00 | 66 | 1018.0 |
| 20260906094541 | 71 | 184 | 0.9 | 6.1 | 0.00 | 0.00 | 0.00 | 66 | 1017.7 |
| 20260906094032 | 71 | 196 | 1.7 | 6.1 | 0.00 | 0.00 | 0.00 | 66 | 1017.6 |
| 20260906093532 | 71 | 187 | 1.7 | 7.0 | 0.00 | 0.00 | 0.00 | 66 | 1017.6 |
| 20260906093032 | 71 | 186 | 1.7 | 7.0 | 0.00 | 0.00 | 0.00 | 66 | 1017.6 |
| 20260906092530 | 71 | 207 | 1.7 | 7.0 | 0.00 | 0.00 | 0.00 | 66 | 1017.5 |
| 20260906092031 | 71 | 163 | 0.9 | 5.2 | 0.00 | 0.00 | 0.00 | 66 | 1017.6 |
| 20260906091535 | 71 | 158 | 0.0 | 1.7 | 0.00 | 0.00 | 0.00 | 66 | 1017.6 |
| 20260906091031 | 71 | 158 | 0.0 | 5.2 | 0.00 | 0.00 | 0.00 | 66 | 1017.6 |
| 20260906090529 | 71 | 161 | 0.0 | 5.2 | 0.00 | 0.00 | 0.00 | 66 | 1017.7 |
| 20260906090029 | 71 | 173 | 0.0 | 4.3 | 0.00 | 0.00 | 0.00 | 66 | 1017.7 |
| 20260906085528 | 71 | 178 | 0.9 | 5.2 | 0.00 | 0.00 | 0.00 | 65 | 1017.7 |
| 20260906085028 | 71 | 117 | 0.0 | 4.3 | 0.00 | 0.00 | 0.00 | 65 | 1017.7 |
| 20260906084533 | 71 | 190 | 0.9 | 4.3 | 0.00 | 0.00 | 0.00 | 65 | 1017.6 |
| 20260906084025 | 71 | 163 | 0.9 | 6.1 | 0.00 | 0.00 | 0.00 | 65 | 1017.6 |
| 20260906083526 | 71 | 193 | 0.9 | 8.7 | 0.00 | 0.00 | 0.00 | 65 | 1017.5 |
| 20260906083025 | 71 | 140 | 3.5 | 8.7 | 0.00 | 0.00 | 0.00 | 65 | 1017.4 |
| 20260906082523 | 71 | 162 | 1.7 | 6.1 | 0.00 | 0.00 | 0.00 | 65 | 1017.4 |
| 20260906082023 | 71 | 175 | 0.9 | 5.2 | 0.00 | 0.00 | 0.00 | 65 | 1017.5 |
| 20260906081529 | 71 | 142 | 0.9 | 5.2 | 0.00 | 0.00 | 0.00 | 65 | 1017.6 |
| 20260906081022 | 71 | 143 | 0.9 | 6.1 | 0.00 | 0.00 | 0.00 | 65 | 1017.5 |
| 20260906080521 | 72 | 169 | 1.7 | 9.6 | 0.00 | 0.00 | 0.00 | 65 | 1017.4 |
| 20260906080021 | 72 | 182 | 2.6 | 9.6 | 0.00 | 0.00 | 0.00 | 65 | 1017.3 |
| 20260906075520 | 72 | 202 | 2.6 | 6.1 | 0.00 | 0.00 | 0.00 | 64 | 1017.3 |
| 20260906075023 | 72 | 167 | 0.9 | 7.0 | 0.00 | 0.00 | 0.00 | 64 | 1017.4 |
| 20260906074519 | 72 | 192 | 1.7 | 6.1 | 0.00 | 0.00 | 0.00 | 64 | 1017.5 |
| 20260906074019 | 72 | 195 | 2.6 | 6.1 | 0.00 | 0.00 | 0.00 | 64 | 1017.6 |
| 20260906073551 | 72 | 173 | 1.7 | 4.3 | 0.00 | 0.00 | 0.00 | 64 | 1017.6 |
| 20260906073048 | 72 | 172 | 0.0 | 3.5 | 0.00 | 0.00 | 0.00 | 64 | 1017.7 |
| 20260906072549 | 72 | 175 | 0.0 | 3.5 | 0.00 | 0.00 | 0.00 | 64 | 1017.7 |
| 20260906072047 | 72 | 173 | 0.0 | 5.2 | 0.00 | 0.00 | 0.00 | 64 | 1017.8 |
| 20260906071547 | 72 | 175 | 0.9 | 5.2 | 0.00 | 0.00 | 0.00 | 64 | 1017.7 |
| 20260906071047 | 72 | 174 | 0.0 | 1.7 | 0.00 | 0.00 | 0.00 | 64 | 1017.8 |
| 20260906070545 | 72 | 175 | 0.0 | 1.7 | 0.00 | 0.00 | 0.00 | 64 | 1017.9 |
| 20260906070042 | 72 | 175 | 0.0 | 1.7 | 0.00 | 0.00 | 0.00 | 64 | 1018.0 |
| 20260906065545 | 73 | 175 | 0.0 | 3.5 | 0.00 | 0.00 | 0.00 | 64 | 1018.1 |
| 20260906065042 | 73 | 182 | 0.0 | 3.5 | 0.00 | 0.00 | 0.00 | 64 | 1018.0 |
| 20260906064541 | 73 | 187 | 0.0 | 3.5 | 0.00 | 0.00 | 0.00 | 64 | 1017.9 |
| 20260906064041 | 73 | 236 | 0.0 | 4.3 | 0.00 | 0.00 | 0.00 | 64 | 1017.9 |
| 20260906063542 | 73 | 115 | 1.7 | 4.3 | 0.00 | 0.00 | 0.00 | 64 | 1017.9 |
| 20260906063040 | 73 | 152 | 0.9 | 2.6 | 0.00 | 0.00 | 0.00 | 64 | 1017.9 |
| 20260906062539 | 73 | 130 | 0.9 | 3.5 | 0.00 | 0.00 | 0.00 | 64 | 1018.1 |
| 20260906062041 | 73 | 128 | 0.0 | 1.7 | 0.00 | 0.00 | 0.00 | 64 | 1018.1 |
| 20260906061540 | 73 | 128 | 0.0 | 4.3 | 0.00 | 0.00 | 0.00 | 64 | 1018.0 |
| 20260906061039 | 74 | 128 | 0.9 | 4.3 | 0.00 | 0.00 | 0.00 | 64 | 1017.9 |
| 20260906060509 | 74 | 155 | 0.9 | 3.5 | 0.00 | 0.00 | 0.00 | 64 | 1018.1 |
| 20260906060011 | 74 | 185 | 0.0 | 3.5 | 0.00 | 0.00 | 0.00 | 64 | 1018.0 |
| 20260906055508 | 74 | 185 | 0.0 | 3.5 | 0.00 | 0.00 | 0.00 | 63 | 1018.0 |
| 20260906055011 | 74 | 157 | 0.0 | 3.5 | 0.00 | 0.00 | 0.00 | 63 | 1017.8 |
| 20260906054509 | 74 | 171 | 0.0 | 1.7 | 0.00 | 0.00 | 0.00 | 63 | 1017.9 |
| 20260906054008 | 74 | 173 | 0.0 | 4.3 | 0.00 | 0.00 | 0.00 | 63 | 1017.8 |
| 20260906053508 | 74 | 173 | 0.0 | 4.3 | 0.00 | 0.00 | 0.00 | 63 | 1017.8 |
| 20260906053006 | 74 | 175 | 0.9 | 4.3 | 0.00 | 0.00 | 0.00 | 64 | 1017.8 |
| 20260906052505 | 73 | 172 | 0.0 | 2.6 | 0.00 | 0.00 | 0.00 | 63 | 1018.0 |
| 20260906052005 | 73 | 144 | 0.0 | 3.5 | 0.00 | 0.00 | 0.00 | 63 | 1017.9 |
| 20260906051505 | 73 | 170 | 0.0 | 3.5 | 0.00 | 0.00 | 0.00 | 64 | 1018.1 |
| 20260906051005 | 73 | 196 | 0.0 | 2.6 | 0.00 | 0.00 | 0.00 | 64 | 1018.1 |
| 20260906050506 | 73 | 198 | 0.0 | 1.7 | 0.00 | 0.00 | 0.00 | 64 | 1018.1 |
| 20260906050011 | 73 | 208 | 0.0 | 1.7 | 0.00 | 0.00 | 0.00 | 64 | 1018.1 |
| 20260906045507 | 73 | 213 | 0.0 | 1.7 | 0.00 | 0.00 | 0.00 | 64 | 1018.1 |
| 20260906045008 | 73 | 215 | 0.0 | 1.7 | 0.00 | 0.00 | 0.00 | 64 | 1018.2 |
| 20260906044504 | 73 | 218 | 0.0 | 1.7 | 0.00 | 0.00 | 0.00 | 64 | 1018.1 |
| 20260906044006 | 73 | 227 | 0.0 | 0.9 | 0.00 | 0.00 | 0.00 | 64 | 1018.3 |
| 20260906043559 | 73 | 227 | 0.0 | 0.9 | 0.00 | 0.00 | 0.00 | 64 | 1018.3 |
| 20260906043105 | 73 | 227 | 0.0 | 0.0 | 0.00 | 0.00 | 0.00 | 64 | 1018.4 |
| 20260906042558 | 73 | 227 | 0.0 | 0.0 | 0.00 | 0.00 | 0.00 | 64 | 1018.4 |
| 20260906042058 | 73 | 227 | 0.0 | 0.9 | 0.00 | 0.00 | 0.00 | 64 | 1018.4 |
| 20260906041558 | 74 | 227 | 0.0 | 0.9 | 0.00 | 0.00 | 0.00 | 64 | 1018.3 |
| 20260906041058 | 74 | 227 | 0.0 | 1.7 | 0.00 | 0.00 | 0.00 | 64 | 1018.3 |
| 20260906040556 | 74 | 227 | 0.0 | 1.7 | 0.00 | 0.00 | 0.00 | 64 | 1018.4 |
| 20260906040055 | 74 | 227 | 0.0 | 0.9 | 0.00 | 0.00 | 0.00 | 63 | 1018.4 |
| 20260906035554 | 74 | 227 | 0.0 | 0.9 | 0.00 | 0.00 | 0.00 | 63 | 1018.5 |
| 20260906035053 | 74 | 227 | 0.0 | 0.9 | 0.00 | 0.00 | 0.00 | 63 | 1018.4 |
| 20260906034558 | 74 | 227 | 0.0 | 0.0 | 0.00 | 0.00 | 0.00 | 63 | 1018.5 |
| 20260906034051 | 74 | 227 | 0.0 | 0.0 | 0.00 | 0.00 | 0.00 | 63 | 1018.5 |
| 20260906033551 | 75 | 227 | 0.0 | 0.9 | 0.00 | 0.00 | 0.00 | 63 | 1018.4 |
| 20260906033049 | 75 | 227 | 0.0 | 0.9 | 0.00 | 0.00 | 0.00 | 63 | 1018.3 |
| 20260906032551 | 75 | 227 | 0.0 | 0.9 | 0.00 | 0.00 | 0.00 | 62 | 1018.3 |
| 20260906032049 | 75 | 227 | 0.0 | 1.7 | 0.00 | 0.00 | 0.00 | 62 | 1018.3 |
| 20260906031609 | 75 | 227 | 0.0 | 1.7 | 0.00 | 0.00 | 0.00 | 62 | 1018.3 |
| 20260906031052 | 75 | 227 | 0.0 | 1.7 | 0.00 | 0.00 | 0.00 | 62 | 1018.3 |
| 20260906030549 | 75 | 227 | 0.0 | 1.7 | 0.00 | 0.00 | 0.00 | 62 | 1018.4 |
| 20260906030050 | 76 | 227 | 0.0 | 0.9 | 0.00 | 0.00 | 0.00 | 62 | 1018.4 |
| 20260906025548 | 76 | 227 | 0.0 | 0.9 | 0.00 | 0.00 | 0.00 | 62 | 1018.3 |
| 20260906025047 | 76 | 227 | 0.0 | 0.9 | 0.00 | 0.00 | 0.00 | 61 | 1018.4 |
| 20260906024555 | 76 | 227 | 0.0 | 0.9 | 0.00 | 0.00 | 0.00 | 61 | 1018.6 |
| 20260906024047 | 76 | 227 | 0.0 | 0.9 | 0.00 | 0.00 | 0.00 | 61 | 1018.5 |
| 20260906023546 | 76 | 227 | 0.0 | 0.9 | 0.00 | 0.00 | 0.00 | 61 | 1018.3 |
| 20260906023104 | 76 | 227 | 0.0 | 1.7 | 0.00 | 0.00 | 0.00 | 60 | 1018.1 |
| 20260906022545 | 76 | 227 | 0.0 | 3.5 | 0.00 | 0.00 | 0.00 | 60 | 1017.9 |
| 20260906022045 | 76 | 227 | 0.0 | 4.3 | 0.00 | 0.00 | 0.00 | 60 | 1017.8 |
| 20260906021545 | 76 | 227 | 0.9 | 4.3 | 0.00 | 0.00 | 0.00 | 60 | 1017.9 |
| 20260906021044 | 76 | 209 | 0.9 | 4.3 | 0.00 | 0.00 | 0.00 | 60 | 1017.8 |
| 20260906020544 | 76 | 209 | 0.9 | 3.5 | 0.00 | 0.00 | 0.00 | 60 | 1017.8 |
| 20260906020050 | 76 | 178 | 0.0 | 3.5 | 0.00 | 0.00 | 0.00 | 59 | 1017.5 |
| 20260906015543 | 77 | 178 | 0.0 | 3.5 | 0.00 | 0.00 | 0.00 | 58 | 1017.3 |
| 20260906015044 | 77 | 188 | 0.0 | 3.5 | 0.00 | 0.00 | 0.00 | 58 | 1017.1 |
| 20260906014544 | 77 | 188 | 0.9 | 4.3 | 0.00 | 0.00 | 0.00 | 57 | 1017.1 |
| 20260906014044 | 77 | 188 | 1.7 | 4.3 | 0.00 | 0.00 | 0.00 | 57 | 1016.9 |
| 20260906013543 | 77 | 190 | 0.9 | 5.2 | 0.00 | 0.00 | 0.00 | 57 | 1016.8 |
| 20260906013041 | 78 | 184 | 1.7 | 6.1 | 0.00 | 0.00 | 0.00 | 57 | 1016.6 |
| 20260906012542 | 78 | 192 | 2.6 | 7.8 | 0.00 | 0.00 | 0.00 | 57 | 1016.6 |
| 20260906012041 | 78 | 186 | 0.9 | 7.8 | 0.00 | 0.00 | 0.00 | 57 | 1016.5 |
| 20260906011540 | 78 | 182 | 1.7 | 7.8 | 0.00 | 0.00 | 0.00 | 57 | 1016.4 |
| 20260906011041 | 78 | 140 | 1.7 | 10.4 | 0.00 | 0.00 | 0.00 | 57 | 1016.4 |
| 20260906010540 | 79 | 148 | 3.5 | 8.7 | 0.00 | 0.00 | 0.00 | 57 | 1016.4 |
| 20260906010040 | 79 | 217 | 3.5 | 7.8 | 0.00 | 0.00 | 0.00 | 57 | 1016.4 |
| 20260906005540 | 79 | 218 | 1.7 | 7.8 | 0.00 | 0.00 | 0.00 | 57 | 1016.2 |
| 20260906005040 | 79 | 180 | 1.7 | 11.3 | 0.00 | 0.00 | 0.00 | 56 | 1016.3 |
| 20260906004547 | 80 | 275 | 2.6 | 12.2 | 0.00 | 0.00 | 0.00 | 56 | 1016.1 |
| 20260906004039 | 80 | 224 | 3.5 | 11.3 | 0.00 | 0.00 | 0.00 | 55 | 1015.9 |
| 20260906003539 | 81 | 201 | 5.2 | 10.4 | 0.00 | 0.00 | 0.00 | 55 | 1015.8 |
| 20260906003042 | 81 | 205 | 4.3 | 10.4 | 0.00 | 0.00 | 0.00 | 54 | 1015.7 |
| 20260906002536 | 82 | 123 | 2.6 | 7.0 | 0.00 | 0.00 | 0.00 | 52 | 1015.6 |
| 20260906002037 | 82 | 202 | 1.7 | 5.2 | 0.00 | 0.00 | 0.00 | 50 | 1015.6 |
| 20260906001543 | 82 | 192 | 1.7 | 6.1 | 0.00 | 0.00 | 0.00 | 50 | 1015.7 |
| 20260906001036 | 83 | 137 | 0.9 | 7.0 | 0.00 | 0.00 | 0.00 | 49 | 1016.0 |
| 20260906000536 | 83 | 190 | 0.9 | 7.0 | 0.00 | 0.00 | 0.00 | 49 | 1015.9 |
| 20260906000035 | 83 | 189 | 1.7 | 6.1 | 0.00 | 0.00 | 0.00 | 49 | 1015.8 |
| 20260905235539 | 83 | 189 | 2.6 | 9.6 | 0.00 | 0.00 | 0.00 | 48 | 1015.7 |
| 20260905235036 | 84 | 46 | 2.6 | 9.6 | 0.00 | 0.00 | 0.00 | 48 | 1015.6 |
| 20260905234535 | 84 | 165 | 4.3 | 9.6 | 0.00 | 0.00 | 0.00 | 47 | 1015.5 |
| 20260905234035 | 84 | 167 | 3.5 | 9.6 | 0.00 | 0.00 | 0.00 | 48 | 1015.5 |
| 20260905233535 | 85 | 164 | 1.7 | 9.6 | 0.00 | 0.00 | 0.00 | 47 | 1015.5 |
| 20260905233038 | 85 | 192 | 2.6 | 9.6 | 0.00 | 0.00 | 0.00 | 47 | 1015.4 |
| 20260905232533 | 85 | 165 | 2.6 | 8.7 | 0.00 | 0.00 | 0.00 | 46 | 1015.3 |
| 20260905232034 | 85 | 215 | 3.5 | 8.7 | 0.00 | 0.00 | 0.00 | 46 | 1015.3 |
| 20260905231536 | 85 | 137 | 3.5 | 7.8 | 0.00 | 0.00 | 0.00 | 46 | 1015.4 |
| 20260905231032 | 85 | 134 | 4.3 | 10.4 | 0.00 | 0.00 | 0.00 | 45 | 1015.4 |
| 20260905230531 | 85 | 194 | 3.5 | 10.4 | 0.00 | 0.00 | 0.00 | 45 | 1015.1 |
| 20260905230031 | 85 | 135 | 2.6 | 10.4 | 0.00 | 0.00 | 0.00 | 45 | 1015.1 |
| 20260905225531 | 85 | 101 | 3.5 | 8.7 | 0.00 | 0.00 | 0.00 | 45 | 1015.0 |
| 20260905225031 | 86 | 140 | 4.3 | 10.4 | 0.00 | 0.00 | 0.00 | 45 | 1014.9 |
| 20260905224530 | 86 | 96 | 5.2 | 10.4 | 0.00 | 0.00 | 0.00 | 45 | 1014.8 |
| 20260905224037 | 86 | 114 | 3.5 | 8.7 | 0.00 | 0.00 | 0.00 | 45 | 1014.8 |
| 20260905223529 | 86 | 199 | 1.7 | 7.8 | 0.00 | 0.00 | 0.00 | 45 | 1014.9 |
| 20260905223028 | 86 | 178 | 2.6 | 7.8 | 0.00 | 0.00 | 0.00 | 46 | 1015.1 |
| 20260905222700 | 86 | 102 | 4.3 | 7.8 | 0.00 | 0.00 | 0.00 | 45 | 1015.2 |
| 20260905222100 | 86 | 115 | 2.6 | 7.8 | 0.00 | 0.00 | 0.00 | 45 | 1015.2 |
| 20260905221619 | 86 | 143 | 1.7 | 7.8 | 0.00 | 0.00 | 0.00 | 45 | 1015.2 |
| 20260905221058 | 86 | 186 | 3.5 | 7.8 | 0.00 | 0.00 | 0.00 | 44 | 1015.3 |
| 20260905220556 | 86 | 139 | 3.5 | 7.0 | 0.00 | 0.00 | 0.00 | 45 | 1015.2 |
| 20260905220055 | 86 | 120 | 2.6 | 7.0 | 0.00 | 0.00 | 0.00 | 45 | 1015.3 |
| 20260905215552 | 86 | 192 | 1.7 | 7.0 | 0.00 | 0.00 | 0.00 | 46 | 1015.3 |
| 20260905215055 | 85 | 114 | 2.6 | 12.2 | 0.00 | 0.00 | 0.00 | 46 | 1015.1 |
| 20260905214601 | 86 | 123 | 5.2 | 12.2 | 0.00 | 0.00 | 0.00 | 45 | 1015.1 |
| 20260905214052 | 86 | 157 | 4.3 | 10.4 | 0.00 | 0.00 | 0.00 | 46 | 1015.1 |
| 20260905213550 | 86 | 136 | 3.5 | 9.6 | 0.00 | 0.00 | 0.00 | 47 | 1015.3 |
| 20260905213052 | 85 | 181 | 4.3 | 9.6 | 0.00 | 0.00 | 0.00 | 47 | 1015.3 |
| 20260905212552 | 85 | 134 | 4.3 | 8.7 | 0.00 | 0.00 | 0.00 | 47 | 1015.3 |
| 20260905212049 | 85 | 115 | 3.5 | 9.6 | 0.00 | 0.00 | 0.00 | 47 | 1015.4 |
| 20260905211549 | 84 | 103 | 5.2 | 9.6 | 0.00 | 0.00 | 0.00 | 49 | 1015.3 |
| 20260905211046 | 84 | 119 | 5.2 | 11.3 | 0.00 | 0.00 | 0.00 | 50 | 1015.3 |
| 20260905210547 | 84 | 91 | 5.2 | 11.3 | 0.00 | 0.00 | 0.00 | 50 | 1015.3 |
| 20260905210055 | 84 | 217 | 5.2 | 10.4 | 0.00 | 0.00 | 0.00 | 50 | 1015.4 |
| 20260905205541 | 85 | 146 | 4.3 | 9.6 | 0.00 | 0.00 | 0.00 | 50 | 1015.5 |
| 20260905205041 | 85 | 168 | 3.5 | 7.0 | 0.00 | 0.00 | 0.00 | 50 | 1015.7 |
| 20260905204542 | 84 | 234 | 3.5 | 7.0 | 0.00 | 0.00 | 0.00 | 51 | 1016.1 |
| 20260905204040 | 84 | 130 | 3.5 | 7.0 | 0.00 | 0.00 | 0.00 | 51 | 1016.2 |
| 20260905203537 | 84 | 176 | 4.3 | 7.0 | 0.00 | 0.00 | 0.00 | 52 | 1016.2 |
| 20260905203038 | 83 | 227 | 1.7 | 7.0 | 0.00 | 0.00 | 0.00 | 52 | 1016.3 |
| 20260905202535 | 83 | 174 | 3.5 | 6.1 | 0.00 | 0.00 | 0.00 | 52 | 1016.3 |
| 20260905202036 | 83 | 98 | 1.7 | 6.1 | 0.00 | 0.00 | 0.00 | 54 | 1016.4 |
| 20260905201537 | 82 | 202 | 2.6 | 6.1 | 0.00 | 0.00 | 0.00 | 55 | 1016.5 |
| 20260905201035 | 82 | 123 | 3.5 | 7.0 | 0.00 | 0.00 | 0.00 | 55 | 1016.7 |
| 20260905200540 | 82 | 140 | 1.7 | 7.0 | 0.00 | 0.00 | 0.00 | 54 | 1016.7 |
| 20260905200038 | 82 | 123 | 4.3 | 7.0 | 0.00 | 0.00 | 0.00 | 54 | 1016.9 |
| 20260905195507 | 82 | 138 | 3.5 | 7.8 | 0.00 | 0.00 | 0.00 | 54 | 1017.0 |
| 20260905195005 | 83 | 96 | 2.6 | 7.0 | 0.00 | 0.00 | 0.00 | 53 | 1017.1 |
| 20260905194505 | 83 | 119 | 3.5 | 7.8 | 0.00 | 0.00 | 0.00 | 53 | 1017.3 |
| 20260905194005 | 83 | 123 | 0.0 | 4.3 | 0.00 | 0.00 | 0.00 | 52 | 1017.2 |
| 20260905193504 | 83 | 123 | 1.7 | 5.2 | 0.00 | 0.00 | 0.00 | 52 | 1017.3 |
| 20260905193003 | 83 | 224 | 1.7 | 5.2 | 0.00 | 0.00 | 0.00 | 53 | 1017.3 |
| 20260905192603 | 83 | 238 | 2.6 | 5.2 | 0.00 | 0.00 | 0.00 | 53 | 1017.4 |
| 20260905192058 | 83 | 171 | 0.9 | 6.1 | 0.00 | 0.00 | 0.00 | 54 | 1017.4 |
| 20260905191558 | 82 | 212 | 0.0 | 6.1 | 0.00 | 0.00 | 0.00 | 55 | 1017.4 |
| 20260905191100 | 82 | 112 | 1.7 | 7.8 | 0.00 | 0.00 | 0.00 | 55 | 1017.2 |
| 20260905190558 | 82 | 88 | 0.9 | 7.8 | 0.00 | 0.00 | 0.00 | 54 | 1017.3 |
| 20260905190100 | 82 | 128 | 3.5 | 6.1 | 0.00 | 0.00 | 0.00 | 55 | 1017.3 |
| 20260905185557 | 82 | 228 | 1.7 | 6.1 | 0.00 | 0.00 | 0.00 | 54 | 1017.4 |
| 20260905185059 | 82 | 182 | 0.9 | 5.2 | 0.00 | 0.00 | 0.00 | 55 | 1017.3 |
| 20260905184600 | 81 | 165 | 1.7 | 6.1 | 0.00 | 0.00 | 0.00 | 57 | 1017.4 |
| 20260905184059 | 81 | 115 | 0.9 | 7.0 | 0.00 | 0.00 | 0.00 | 57 | 1017.4 |
| 20260905183556 | 81 | 97 | 2.6 | 6.1 | 0.00 | 0.00 | 0.00 | 56 | 1017.3 |
| 20260905183056 | 82 | 66 | 0.9 | 5.2 | 0.00 | 0.00 | 0.00 | 55 | 1017.4 |
| 20260905182555 | 81 | 261 | 1.7 | 6.1 | 0.00 | 0.00 | 0.00 | 55 | 1017.5 |
| 20260905182054 | 82 | 211 | 1.7 | 6.1 | 0.00 | 0.00 | 0.00 | 55 | 1017.4 |
| 20260905181553 | 81 | 122 | 1.7 | 5.2 | 0.00 | 0.00 | 0.00 | 56 | 1017.5 |
| 20260905181053 | 81 | 221 | 0.9 | 4.3 | 0.00 | 0.00 | 0.00 | 58 | 1017.5 |
| 20260905180549 | 80 | 190 | 0.9 | 5.2 | 0.00 | 0.00 | 0.00 | 59 | 1017.5 |
| 20260905180109 | 79 | 139 | 1.7 | 5.2 | 0.00 | 0.00 | 0.00 | 59 | 1017.6 |
| 20260905175547 | 79 | 219 | 0.9 | 4.3 | 0.00 | 0.00 | 0.00 | 59 | 1017.7 |
| 20260905175050 | 79 | 194 | 0.9 | 7.0 | 0.00 | 0.00 | 0.00 | 59 | 1017.7 |
| 20260905174546 | 79 | 193 | 1.7 | 7.8 | 0.00 | 0.00 | 0.00 | 59 | 1017.8 |
| 20260905174046 | 79 | 9 | 0.0 | 5.2 | 0.00 | 0.00 | 0.00 | 60 | 1017.9 |